EN

Hourly Weather Tregubovo

Today, 12 April, Monday

Time Temperature Precipitation Wind Pressure Humidity
00:00 +7°C° 0 mm 2 mps 750 mmHg 76%
01:00 +6°C° 0 mm 2 mps 750 mmHg 77%
02:00 +6°C° 0 mm 2 mps 750 mmHg 77%
03:00 +5°C° 0 mm 2 mps 750 mmHg 77%
04:00 +5°C° 0 mm 2 mps 750 mmHg 78%
05:00 +5°C° 0 mm 2 mps 750 mmHg 78%
06:00 +5°C° 0 mm 3 mps 750 mmHg 73%
07:00 +8°C° 0 mm 3 mps 750 mmHg 67%
08:00 +8°C° 0 mm 4 mps 750 mmHg 62%
09:00 +10°C° 0 mm 4 mps 749 mmHg 56%
10:00 +10°C° 0 mm 5 mps 749 mmHg 49%
11:00 +12°C° 0 mm 5 mps 748 mmHg 43%
12:00 +12°C° 0 mm 5 mps 748 mmHg 44%
13:00 +12°C° 0 mm 5 mps 748 mmHg 46%
14:00 +12°C° 0 mm 5 mps 747 mmHg 47%
15:00 +12°C° 0 mm 5 mps 747 mmHg 55%
16:00 +12°C° 0 mm 4 mps 747 mmHg 63%
17:00 +12°C° 0 mm 4 mps 746 mmHg 71%
18:00 +11°C° 0 mm 3 mps 746 mmHg 76%
19:00 +10°C° 0 mm 3 mps 746 mmHg 82%
20:00 +9°C° 0 mm 3 mps 746 mmHg 88%
21:00 +9°C° 0 mm 3 mps 746 mmHg 90%
22:00 +8°C° 0 mm 2 mps 745 mmHg 92%
23:00 +8°C° 0 mm 2 mps 745 mmHg 95%

Tomorrow, 13 April, Tuesday

Time Temperature Precipitation Wind Pressure Humidity
00:00 +8°C° 0 mm 2 mps 745 mmHg 95%
01:00 +7°C° 0 mm 2 mps 744 mmHg 95%
02:00 +7°C° 0 mm 2 mps 744 mmHg 95%
03:00 +7°C° 0 mm 2 mps 744 mmHg 94%
04:00 +7°C° 0 mm 2 mps 744 mmHg 94%
05:00 +7°C° 0 mm 2 mps 744 mmHg 93%
06:00 +8°C° 0 mm 3 mps 744 mmHg 87%
07:00 +9°C° 0 mm 3 mps 744 mmHg 82%
08:00 +11°C° 0 mm 3 mps 744 mmHg 76%
09:00 +13°C° 0 mm 4 mps 744 mmHg 69%
10:00 +15°C° 0 mm 4 mps 744 mmHg 62%
11:00 +17°C° 0 mm 4 mps 744 mmHg 54%
12:00 +18°C° 0 mm 4 mps 744 mmHg 51%
13:00 +19°C° 0 mm 5 mps 744 mmHg 48%
14:00 +20°C° 0 mm 5 mps 743 mmHg 45%
15:00 +19°C° 0 mm 4 mps 743 mmHg 49%
16:00 +18°C° 0 mm 4 mps 743 mmHg 53%
17:00 +17°C° 0 mm 4 mps 743 mmHg 57%
18:00 +16°C° 0 mm 3 mps 743 mmHg 62%
19:00 +13°C° 0 mm 3 mps 743 mmHg 67%
20:00 +12°C° 0 mm 3 mps 743 mmHg 72%
21:00 +12°C° 0 mm 3 mps 742 mmHg 73%
22:00 +11°C° 0 mm 3 mps 742 mmHg 74%
23:00 +11°C° 0 mm 3 mps 742 mmHg 75%

Day after tomorrow, 14 April, Wednesday

Time Temperature Precipitation Wind Pressure Humidity
00:00 +10°C° 0 mm 3 mps 742 mmHg 78%
01:00 +9°C° 0 mm 3 mps 742 mmHg 80%
02:00 +9°C° 0 mm 3 mps 741 mmHg 83%
03:00 +8°C° 0 mm 3 mps 741 mmHg 84%
04:00 +8°C° 0 mm 3 mps 741 mmHg 85%
05:00 +8°C° 0 mm 3 mps 741 mmHg 87%
06:00 +9°C° 0 mm 3 mps 741 mmHg 83%
07:00 +10°C° 0 mm 3 mps 741 mmHg 80%
08:00 +11°C° 0 mm 4 mps 741 mmHg 77%
09:00 +13°C° 0 mm 4 mps 741 mmHg 73%
10:00 +14°C° 0 mm 4 mps 741 mmHg 69%
11:00 +15°C° 0 mm 4 mps 741 mmHg 65%
12:00 +15°C° 0.3 mm 4 mps 741 mmHg 64%
13:00 +15°C° 0.3 mm 4 mps 740 mmHg 64%
14:00 +15°C° 0.3 mm 4 mps 740 mmHg 63%
15:00 +16°C° 0.3 mm 3 mps 740 mmHg 67%
16:00 +15°C° 0.3 mm 2 mps 740 mmHg 72%
17:00 +14°C° 0.3 mm 1 mps 740 mmHg 76%
18:00 +13°C° 0.1 mm 1 mps 740 mmHg 79%
19:00 +13°C° 0.1 mm 1 mps 740 mmHg 81%
20:00 +12°C° 0.1 mm 1 mps 740 mmHg 83%
21:00 +11°C° 0 mm 1 mps 740 mmHg 83%
22:00 +11°C° 0 mm 1 mps 739 mmHg 84%
23:00 +9°C° 0 mm 2 mps 739 mmHg 84%

15 April, Thursday

Time Temperature Precipitation Wind Pressure Humidity
00:00 +9°C° 0 mm 2 mps 739 mmHg 83%
01:00 +10°C° 0 mm 1 mps 739 mmHg 83%
02:00 +10°C° 0 mm 1 mps 739 mmHg 82%
03:00 +10°C° 0.2 mm 1 mps 739 mmHg 85%
04:00 +10°C° 0.2 mm 1 mps 739 mmHg 87%
05:00 +9°C° 0.2 mm 2 mps 739 mmHg 90%
06:00 +9°C° 0 mm 2 mps 739 mmHg 85%
07:00 +10°C° 0 mm 2 mps 739 mmHg 80%
08:00 +11°C° 0 mm 3 mps 740 mmHg 76%
09:00 +12°C° 0 mm 3 mps 739 mmHg 71%
10:00 +14°C° 0 mm 3 mps 739 mmHg 65%
11:00 +16°C° 0 mm 3 mps 739 mmHg 60%
12:00 +16°C° 0.2 mm 3 mps 739 mmHg 60%
13:00 +16°C° 0.2 mm 3 mps 739 mmHg 60%
14:00 +16°C° 0.2 mm 3 mps 739 mmHg 61%
15:00 +15°C° 0.3 mm 2 mps 739 mmHg 64%
16:00 +15°C° 0.3 mm 2 mps 739 mmHg 68%
17:00 +14°C° 0.3 mm 1 mps 739 mmHg 72%
18:00 +13°C° 0.5 mm 2 mps 739 mmHg 78%
19:00 +12°C° 0.5 mm 2 mps 739 mmHg 84%
20:00 +10°C° 0.5 mm 2 mps 740 mmHg 90%
21:00 +10°C° 0.1 mm 2 mps 739 mmHg 91%
22:00 +9°C° 0.1 mm 2 mps 739 mmHg 92%
23:00 +9°C° 0.1 mm 3 mps 739 mmHg 93%

16 April, Friday

Time Temperature Precipitation Wind Pressure Humidity
00:00 +8°C° 0 mm 3 mps 739 mmHg 93%
01:00 +8°C° 0 mm 3 mps 739 mmHg 93%
02:00 +8°C° 0 mm 3 mps 739 mmHg 92%
03:00 +6°C° 0 mm 4 mps 739 mmHg 93%
04:00 +6°C° 0 mm 4 mps 739 mmHg 94%
05:00 +6°C° 0 mm 4 mps 739 mmHg 95%
06:00 +6°C° 0 mm 4 mps 740 mmHg 92%
07:00 +7°C° 0 mm 5 mps 740 mmHg 89%
08:00 +8°C° 0 mm 5 mps 740 mmHg 86%
09:00 +9°C° 0 mm 5 mps 740 mmHg 80%
10:00 +12°C° 0 mm 5 mps 741 mmHg 74%
11:00 +13°C° 0 mm 6 mps 741 mmHg 67%
12:00 +13°C° 0.1 mm 5 mps 741 mmHg 66%
13:00 +13°C° 0.1 mm 5 mps 741 mmHg 65%
14:00 +14°C° 0.1 mm 5 mps 741 mmHg 64%
15:00 +13°C° 0.1 mm 6 mps 741 mmHg 66%
16:00 +13°C° 0.1 mm 6 mps 741 mmHg 68%
17:00 +11°C° 0.1 mm 7 mps 741 mmHg 70%
18:00 +10°C° 0 mm 7 mps 742 mmHg 73%
19:00 +9°C° 0 mm 7 mps 742 mmHg 76%
20:00 +6°C° 0 mm 7 mps 742 mmHg 79%
21:00 +6°C° 0 mm 7 mps 743 mmHg 78%
22:00 +5°C° 0 mm 7 mps 743 mmHg 77%
23:00 +5°C° 0 mm 6 mps 744 mmHg 76%

17 April, Saturday

Time Temperature Precipitation Wind Pressure Humidity
00:00 +4°C° 0 mm 6 mps 744 mmHg 74%
01:00 +4°C° 0 mm 6 mps 744 mmHg 72%
02:00 +3°C° 0 mm 6 mps 745 mmHg 69%
03:00 +3°C° 0 mm 6 mps 745 mmHg 70%
04:00 +2°C° 0 mm 6 mps 745 mmHg 70%
05:00 +2°C° 0 mm 6 mps 746 mmHg 70%
06:00 +2°C° 0 mm 6 mps 746 mmHg 67%
07:00 +3°C° 0 mm 6 mps 747 mmHg 64%
08:00 +4°C° 0 mm 7 mps 747 mmHg 60%
09:00 +5°C° 0 mm 7 mps 748 mmHg 55%
10:00 +6°C° 0 mm 7 mps 748 mmHg 50%
11:00 +9°C° 0 mm 7 mps 749 mmHg 45%
12:00 +9°C° 0 mm 6 mps 749 mmHg 43%
13:00 +10°C° 0 mm 6 mps 749 mmHg 40%
14:00 +10°C° 0 mm 6 mps 749 mmHg 38%
15:00 +10°C° 0 mm 6 mps 749 mmHg 40%
16:00 +9°C° 0 mm 5 mps 749 mmHg 42%
17:00 +9°C° 0 mm 5 mps 750 mmHg 44%
18:00 +7°C° 0 mm 4 mps 750 mmHg 49%
19:00 +6°C° 0 mm 4 mps 750 mmHg 54%
20:00 +4°C° 0 mm 3 mps 751 mmHg 59%
21:00 +3°C° 0 mm 3 mps 751 mmHg 61%
22:00 +3°C° 0 mm 3 mps 751 mmHg 64%
23:00 +2°C° 0 mm 3 mps 752 mmHg 66%
Show more

We Need Your Consent

Meteoprog and our Service Providers may store and access personal data such as cookies, device identifiers or other similar technologies on your device and process such data to personalise content and ads, as well as provide social media features and to analyse the traffic.

  • Store and/or access information on your device

    Cookies, device identifiers or other information can be stored or accessed on your device for the purposes indicated above.

  • Personalised ads and content, ad and content measurement, audience insights, and products development

    Ads and content can be personalised based on a profile. More data can be added to better personalise ads and content. Ad and content performance can be measured. Insights about the audience who saw the ads and content can be derived. Such data can be used to develop or improve user’s experience, systems and software.

By clicking ‘I Agree’ you will allow the use of indicated cookies, device identifiers, web beacons or other similar technologies. Your settings can be changed in the browser on your device.

For certain purposes, legitimate interests may be relied on, rather than consent. You can read more about this in our Privacy and Cookie Policy.